Hourly Data Report for July 06, 2021

CAMBRIDGE BAY A
NUNAVUT
Current Station Operator: NAVCAN

69°06'29.000" N
105°08'14.000" W
31.10 m
2400601
71925
YCB

Download Data

Hourly Data (July 2021)
Hourly Data Report for July 6, 2021
TIME
LST
Temp Definition
°C
Dew Point Definition
°C
Rel Hum Definition
%
Precip. Amount Definition
mm

Wind Dir Definition
10's deg

Wind Spd Definition
km/h
Visibility Definition
km
Stn Press Definition
kPa
Hmdx Definition


Wind Chill Definition


Weather Definition


00:00 5.1 3.5 90   9 13 24.1 101.21     LegendNANA
01:00 4.8 3.4 91   9 14 24.1 101.15     Rain
02:00 5.0 3.5 90   7 19 24.1 101.10     Rain
03:00 5.1 3.6 90   8 20 24.1 101.06     Rain
04:00 4.8 3.1 88   7 18 24.1 101.03     Rain
05:00 5.1 3.2 88   6 16 24.1 100.99     Rain
06:00 5.0 3.5 90   7 17 24.1 100.97     Rain
07:00 5.2 3.8 90   3 24 22.5 100.94     Rain
08:00 5.2 4.1 92   4 24 24.1 100.92     Rain
09:00 6.4 5.0 91   4 30 24.1 100.91     LegendNANA
10:00 7.4 5.3 87   4 22 24.1 100.91     Rain
11:00 8.9 5.8 81   5 22 24.1 100.91     Rain
12:00 9.4 4.5 71   5 23 24.1 100.95     LegendNANA
13:00 10.8 4.8 66   8 20 24.1 100.95     LegendNANA
14:00 11.6 4.9 63   5 18 24.1 100.94     Mainly Clear
15:00 12.0 4.5 60   5 10 24.1 100.95     LegendNANA
16:00 12.5 4.9 60   3 10 24.1 100.93     LegendNANA
17:00 12.3 3.2 54   33 4 24.1 100.92     Mainly Clear
18:00 10.7 5.0 68   26 11 24.1 100.90     LegendNANA
19:00 10.5 5.2 70   26 10 24.1 100.88     LegendNANA
20:00 10.3 5.2 70   28 7 24.1 100.87     Mainly Clear
21:00 9.5 4.9 73   28 7 24.1 100.84     LegendNANA
22:00 9.2 5.5 78   31 5 24.1 100.83     LegendNANA
23:00 8.1 4.7 79   4 4 24.1 100.83     Mainly Clear

Notes on Data Quality.

Legend

  • E = Estimated
  • M = Missing
  • NA = Not Available*
  • [empty] = Indicates an unobserved value
Date modified: